Theta_e
293 293 292 291 293 287 284 290 293 297 292 293 294 293 291 287 286 286 286 285 284 283 282 281 279 278 277 277 277 277 278 279 282 284 284 285 284 285 287 289 295 295 296 299
289 291 290 290 290 290 287 288 290 291 291 291 289 288 288 287 287 286 286 285 284 283 282 281 279 279 278 277 277 277 278 278 280 284 284 285 285 285 288 290 291 294 296 299
291 289 290 292 293 292 291 286 288 290 291 290 289 290 289 288 287 287 286 285 284 283 282 281 280 279 278 277 277 277 277 278 279 282 284 285 285 289 288 288 290 292 293 298
290 289 295 295 293 291 292 289 287 288 289 289 288 287 286 287 287 287 286 285 284 283 282 281 280 279 279 278 277 277 277 277 278 280 282 284 285 285 287 287 287 292 290 297
290 291 293 295 289 290 292 295 290 288 288 288 287 285 289 289 289 288 286 285 284 283 282 281 281 280 279 278 278 277 277 277 277 278 280 282 284 285 285 286 286 285 287 296
287 289 294 295 288 287 288 294 289 288 289 289 286 293 293 289 287 287 286 285 284 283 282 281 281 280 279 278 278 277 277 277 277 277 278 280 281 283 285 285 286 284 288 293
288 289 290 291 288 286 293 296 288 287 289 289 290 291 290 288 287 285 285 285 284 283 283 281 280 280 279 278 278 278 277 276 277 277 277 278 280 282 282 282 284 287 285 289
288 288 290 286 285 289 291 287 288 289 289 288 288 288 287 286 287 285 284 284 284 283 283 281 281 280 280 279 278 278 277 277 277 277 277 277 278 280 282 282 282 283 286 287
289 291 292 286 288 287 285 287 288 287 290 289 287 287 286 289 288 284 284 283 284 283 283 282 281 280 280 279 278 278 277 277 276 277 277 277 277 278 280 280 281 281 282 283
288 289 290 289 288 287 289 289 289 290 290 290 290 288 287 288 288 285 283 283 283 283 283 282 281 280 280 279 278 278 278 277 276 276 277 277 277 278 279 280 280 280 280 281
288 288 287 287 288 287 286 288 289 288 289 290 289 289 288 288 287 287 284 284 283 283 282 282 281 280 280 279 278 278 277 277 276 276 276 276 276 277 278 279 280 280 279 279
288 286 286 286 286 285 286 286 287 288 288 289 289 289 287 287 286 286 287 283 282 282 282 281 281 280 279 279 279 278 277 277 276 276 276 276 276 276 276 277 278 278 279 279
287 286 286 285 285 285 285 286 287 287 288 288 289 288 287 287 287 286 286 283 281 282 282 282 281 280 279 279 278 278 277 277 276 275 275 276 276 276 276 276 276 277 277 277
287 286 286 285 285 286 286 287 287 288 288 289 289 288 288 287 286 285 285 284 282 282 283 282 281 280 279 279 278 277 277 277 276 275 275 275 275 276 276 276 276 276 276 276
286 286 285 286 287 286 286 286 286 287 287 287 288 288 287 287 286 285 285 285 285 285 284 282 281 279 278 278 278 277 277 276 276 275 275 275 275 275 275 275 275 275 276 276
285 285 285 285 285 286 285 285 285 285 286 287 287 287 287 286 285 284 284 284 284 284 282 281 280 278 278 277 277 277 276 276 275 275 274 275 275 275 275 276 275 275 275 275
284 285 284 284 284 285 284 284 284 285 285 285 286 286 286 285 284 283 283 283 283 282 281 279 278 277 277 276 276 276 276 275 275 274 274 274 275 275 275 275 275 275 275 274
284 284 284 283 283 283 283 283 283 283 284 284 285 285 284 283 282 282 282 282 280 279 278 277 277 276 276 276 276 275 275 275 274 274 274 274 274 274 275 275 275 275 275 275
283 283 282 282 281 281 281 281 282 283 284 285 285 284 283 282 281 282 281 278 277 277 277 276 276 276 275 275 275 274 274 274 274 274 274 274 274 274 274 274 274 274 274 274
282 281 280 280 280 280 280 280 282 283 283 283 283 283 282 281 281 280 278 276 276 276 276 276 275 275 275 274 274 274 274 274 274 274 274 274 274 274 274 274 274 274 274 274
281 279 278 278 278 280 280 280 281 282 282 282 281 281 280 280 279 277 276 276 275 275 275 275 274 274 274 274 274 274 274 274 274 274 274 274 274 274 273 273 273 273 273 273
277 277 277 277 278 279 279 279 280 280 280 280 280 280 279 278 276 275 275 275 275 274 274 274 273 274 274 274 273 273 273 273 273 273 273 273 273 273 273 273 273 272 272 272
276 277 277 277 277 278 278 278 278 278 278 278 278 278 277 276 275 275 275 274 274 273 273 273 275 275 275 273 273 273 272 272 272 272 272 272 272 272 272 272 272 272 272 272
276 276 276 276 276 277 277 277 277 277 277 277 276 276 276 275 275 274 274 274 274 274 274 274 273 274 273 272 272 272 272 272 272 272 272 272 272 271 271 271 272 273 273 274
276 276 276 276 276 275 275 275 275 275 275 275 275 275 275 274 274 274 274 273 273 273 273 272 272 272 272 272 272 272 271 271 271 271 271 271 272 273 273 274 274 274 275 275
275 274 274 274 274 275 275 275 275 275 274 275 274 274 274 274 273 273 273 273 272 272 273 272 272 271 271 271 271 271 271 272 272 273 273 273 273 274 274 274 274 274 275 275
274 273 274 274 274 274 274 274 274 274 274 274 274 273 273 273 272 272 272 272 272 272 272 272 271 271 271 271 272 272 273 273 273 273 273 273 274 274 274 274 274 274 274 274
Wind_Speed
17 18 15 17 20 15 16 22 10 12 9 16 11 12 14 19 15 11 10 10 9 9 10 11 11 13 15 15 16 19 21 23 25 27 29 25 18 16 10 8 3 8 15 16
6 16 17 21 24 20 23 21 23 23 27 21 28 18 18 14 8 11 11 10 9 9 9 10 11 12 14 15 16 18 20 22 24 27 28 28 22 21 19 16 14 12 13 13
8 2 13 16 20 17 13 8 16 16 14 12 12 8 11 11 13 16 13 10 10 9 8 8 10 11 13 15 16 17 19 20 22 25 28 29 29 24 23 17 19 19 19 19
8 8 7 2 7 7 16 9 18 15 13 11 13 18 22 20 18 14 9 8 9 9 8 7 8 10 12 15 16 17 17 19 21 23 26 27 27 22 21 23 23 24 24 25
4 5 12 13 3 3 4 3 19 15 14 9 7 8 11 12 10 7 8 8 9 9 9 7 6 8 10 13 16 17 18 19 21 21 23 25 27 25 23 23 22 23 24 28
3 5 5 4 2 0 2 8 1 13 2 3 1 6 6 12 14 10 10 10 11 11 11 9 7 6 8 10 14 17 18 18 19 19 20 22 24 24 22 21 21 20 29 28
12 7 8 8 3 3 4 2 6 10 3 7 4 7 16 19 23 18 15 13 13 13 12 10 9 6 6 8 11 15 17 17 17 18 17 18 19 20 18 21 21 26 28 30
5 6 8 2 3 3 4 8 6 8 11 15 18 17 14 16 19 17 19 17 14 13 13 12 11 8 6 6 9 12 16 17 16 17 19 17 19 19 22 24 23 25 29 29
6 7 15 6 9 11 12 15 17 14 12 15 16 19 17 18 17 16 14 15 14 14 13 14 13 11 8 6 6 10 13 16 15 15 17 18 20 22 23 25 27 30 28 28
9 4 18 26 32 25 16 19 21 16 23 21 22 22 20 19 18 13 13 15 14 14 14 14 14 12 10 8 5 6 9 13 14 13 13 15 16 17 20 25 26 28 26 27
17 19 24 21 15 19 28 24 22 26 25 24 26 20 17 20 18 14 12 14 14 14 14 13 13 12 12 9 7 5 7 10 11 11 10 12 14 15 15 20 22 24 23 20
12 34 27 30 23 30 28 26 27 28 27 29 19 16 17 19 17 15 13 13 14 13 13 13 13 13 13 10 7 6 6 8 9 7 7 8 9 10 13 14 16 18 19 20
15 38 33 33 35 27 22 23 22 18 15 14 13 14 15 18 16 15 13 11 10 11 12 13 13 13 13 11 8 6 6 8 9 6 4 4 7 8 9 11 13 16 18 19
26 36 22 23 18 22 17 17 11 9 8 8 10 14 17 17 15 14 11 12 13 11 12 11 12 12 13 11 9 7 6 7 8 6 2 2 4 6 8 10 12 15 18 19
31 30 27 28 18 23 22 19 16 14 13 15 15 14 16 16 15 12 9 9 10 10 8 9 10 11 12 11 9 7 6 7 6 5 3 1 2 4 6 9 11 13 14 17
33 26 30 28 26 23 21 20 19 23 23 21 16 13 15 15 12 9 7 6 7 7 7 8 10 10 10 9 8 6 6 7 6 4 5 4 2 2 3 6 9 12 14 15
28 30 33 30 29 30 28 27 26 24 19 17 16 12 13 12 7 5 5 5 5 5 7 9 9 9 9 8 6 6 6 6 5 5 6 6 4 2 1 3 6 9 11 12
22 23 23 23 28 31 32 25 22 20 19 16 13 12 11 7 5 3 4 4 5 6 9 10 10 9 8 5 4 5 5 4 4 5 7 6 5 3 2 2 5 7 10 12
24 25 26 26 25 25 25 24 22 19 17 14 13 10 6 4 3 2 3 5 8 9 11 10 9 6 4 3 3 2 2 2 3 5 6 6 5 4 4 4 5 7 10 12
29 27 27 24 23 21 21 20 19 15 12 11 9 6 3 3 3 3 6 9 11 10 10 8 6 4 2 2 1 1 2 2 3 4 4 5 5 5 4 5 6 8 10 11
29 31 26 23 22 22 20 18 16 14 12 10 6 3 3 4 5 7 10 12 12 10 8 6 4 4 4 4 3 2 2 3 3 3 3 3 3 3 4 6 7 9 10 12
25 26 26 24 24 22 19 16 15 13 10 7 5 3 4 7 10 12 11 9 10 8 6 5 5 6 6 4 4 5 4 3 3 2 2 1 2 3 5 6 8 10 11 13
23 22 22 21 21 18 15 13 11 9 6 3 0 3 5 9 10 11 11 10 8 6 6 10 11 6 7 1 2 2 2 2 2 1 0 1 3 5 6 8 9 10 11 12
23 21 20 20 17 14 13 11 9 6 4 2 4 6 7 9 9 8 9 9 8 13 12 10 6 6 3 3 2 1 1 1 1 2 3 4 4 5 5 4 5 7 9 10
19 20 21 20 18 16 13 10 8 5 4 5 7 9 8 7 3 9 9 7 6 13 12 6 6 3 2 2 2 2 1 0 0 1 1 2 2 2 3 5 6 8 10 12
19 18 20 17 16 14 13 10 7 5 4 5 6 6 4 3 7 8 8 5 7 15 13 5 5 1 1 2 3 4 6 6 6 4 3 2 2 3 4 5 7 9 11 12
18 18 20 17 16 13 12 10 6 4 2 2 1 3 4 5 6 7 8 7 9 13 11 8 3 2 6 8 9 8 6 4 2 2 4 5 6 8 10 11 12 13 13 13
Wind_Direction
254 270 260 258 257 200 206 224 234 265 242 270 275 283 276 294 291 289 280 268 266 271 294 303 320 335 335 333 337 345 350 352 352 354 356 355 360 27 41 59 165 184 160 182
272 261 257 266 262 249 222 238 244 255 275 281 288 273 264 270 264 283 273 266 264 264 283 300 318 337 342 343 344 349 354 356 -0 2 2 3 12 38 53 71 94 124 124 138
274 329 294 275 259 242 213 204 225 231 243 258 286 290 287 287 277 284 279 263 262 260 272 293 312 334 348 351 353 352 355 1 7 10 13 11 15 30 46 60 81 88 80 86
289 304 247 69 303 258 217 215 209 241 256 262 284 290 289 284 278 290 266 258 263 258 264 279 304 327 349 355 358 357 358 7 11 14 19 19 14 31 44 53 57 70 63 74
259 238 309 299 94 137 185 248 219 227 257 273 300 302 294 344 298 273 265 264 269 260 259 262 287 313 341 356 359 2 1 7 14 14 19 23 21 18 42 52 57 62 60 74
188 255 261 33 86 180 226 267 71 180 207 240 285 290 300 333 319 279 270 272 276 262 255 256 267 296 328 349 358 2 4 4 9 16 18 22 30 27 36 39 45 45 60 69
234 260 276 288 245 157 243 47 118 164 242 255 259 257 289 303 307 288 273 274 274 259 258 254 254 274 307 335 350 358 3 4 4 10 21 26 24 35 40 47 43 48 54 62
211 235 274 71 55 243 350 355 53 316 286 285 285 274 280 289 295 294 277 265 268 255 254 254 254 257 279 313 335 352 0 4 5 6 11 21 27 29 36 37 38 41 50 52
220 267 308 287 265 265 292 294 300 298 329 328 300 290 286 291 297 299 276 255 259 251 247 253 253 253 259 279 318 342 353 1 7 10 10 13 20 28 26 29 30 33 39 40
312 280 289 297 295 292 291 292 283 291 306 308 305 301 287 298 297 291 266 255 257 250 247 248 252 248 249 263 285 327 347 356 3 11 15 19 24 24 31 33 32 28 32 36
281 288 301 288 295 291 304 292 277 294 295 293 305 294 293 297 295 288 268 256 244 255 249 242 246 244 239 253 274 304 335 352 359 4 20 27 32 36 35 43 36 38 29 31
312 310 288 285 285 296 287 284 288 293 286 289 289 296 295 300 298 286 270 245 252 243 241 239 241 240 234 239 255 283 315 338 351 2 12 34 49 45 45 50 48 44 43 39
297 321 303 280 294 295 279 282 298 287 278 287 296 301 316 314 306 291 273 249 230 239 238 234 240 235 230 233 244 258 291 320 335 346 11 34 45 60 58 54 48 47 40 40
315 345 345 345 328 333 315 318 322 301 310 313 319 327 321 313 306 298 272 241 242 241 236 232 236 228 221 226 239 247 272 304 318 320 327 40 56 58 55 51 46 45 45 40
334 344 343 348 349 5 7 358 348 346 343 344 332 308 315 312 306 295 270 254 241 232 232 231 224 214 212 219 228 240 268 293 302 294 266 212 96 70 58 53 48 42 34 40
335 337 343 345 346 345 345 340 329 337 336 324 320 309 314 310 301 286 268 246 231 221 217 211 206 201 205 210 218 244 274 290 289 266 231 213 183 114 63 47 41 39 37 28
335 339 339 339 341 337 336 335 336 337 328 321 324 312 311 304 292 274 257 233 216 201 190 187 185 182 186 197 221 251 275 283 272 240 213 208 205 192 68 30 24 23 26 26
342 328 329 326 326 326 327 328 328 326 326 322 318 312 307 292 263 236 229 218 190 172 161 160 161 166 179 200 235 263 276 273 246 217 203 198 208 230 269 335 357 3 1 2
336 331 328 324 324 323 323 325 326 323 323 322 317 310 298 269 236 205 196 176 161 154 150 151 155 164 180 210 245 269 258 225 197 191 190 196 215 235 256 292 320 334 341 345
329 329 328 323 326 328 327 330 332 335 329 321 316 308 281 217 191 169 154 150 145 144 146 149 155 166 183 205 182 113 115 148 165 174 183 200 218 235 258 282 302 315 324 329
326 325 328 328 328 330 330 330 335 337 335 329 315 283 226 188 157 148 151 149 143 141 143 141 142 139 123 113 103 113 120 123 132 168 187 200 222 253 275 291 303 308 312 316
331 334 334 334 334 333 332 328 327 326 324 320 305 262 194 158 147 144 141 147 142 138 134 131 127 132 123 104 89 92 94 107 122 129 147 203 263 282 294 301 305 308 311 313
342 343 341 343 343 343 342 339 341 341 341 339 308 166 156 145 145 152 146 143 131 126 129 125 94 132 182 240 156 130 124 118 111 104 0 295 292 293 296 300 306 313 319 323
352 355 351 352 354 357 1 3 3 4 14 79 123 125 132 139 144 145 138 132 129 132 119 144 162 177 180 163 165 175 201 263 285 291 294 294 296 305 316 335 351 353 349 342
2 2 356 356 1 4 3 8 14 38 69 106 119 125 132 140 158 154 152 151 162 156 138 140 115 129 191 214 211 214 222 229 4 27 57 75 72 44 15 8 8 1 354 347
3 3 2 5 6 8 9 12 25 49 70 102 122 131 143 148 154 160 163 167 160 174 184 205 328 325 166 150 134 120 110 105 100 94 84 61 21 353 347 345 345 343 342 341
8 10 6 14 16 16 11 4 15 27 67 93 130 149 147 157 173 179 187 194 190 193 216 256 263 154 130 122 115 109 100 88 65 356 319 307 303 306 304 306 308 313 319 329